Airfield :
LOGIN :

Register | Disclaimer

   EN    FR    IT 

 










Legend :    VFR   Marginal VFR   IFR   Intensive IFR   Very Intensive IFR
Visi :
Ceiling :
>= 8 km
>= 3000ft
5 to 8 km
1000 to 3000 ft
1500m to 5 km
500 to 1000 ft
800 to 1500m
200 to 500 ft
< 800m
< 200 ft
Symbols :   Thunderstorms  Fog  Heavy snow  Heavy precipitations  Wind > 20 kt
SIGMETs :     Misc.  Thunderstorms  Icing  Turbulence  Mountain Waves  Volcanic Ashes






- Airport Elevation : 978 ft
- IATA code : LNZ


LOWL - Linz

CURRENT METAR :
  • 270850Z 32005KT 280V350 9999 FEW008 SCT030 05/03 Q1035 NOSIG

EXPIRED METARs :
  • 270820Z 31004KT 9999 FEW021 BKN032 05/03 Q1035 NOSIG
  • 270750Z VRB02KT 9999 FEW019 SCT033 04/02 Q1035 NOSIG
  • 270720Z 28003KT 9999 FEW024 03/02 Q1035 NOSIG
  • 270650Z 26004KT 9999 FEW020 03/02 Q1035 NOSIG
  • 270620Z 26005KT 9999 FEW020 03/02 Q1034 NOSIG

TAF TAF LOWL
Valid from the 27 at 06:00 until the 28 at 06:00 UTC


270515Z 2706/2806 27005KT 9999 SCT050 TX10/2714Z TN00/2806Z
BECMG 2716/2718 08004KT CAVOK



MET'MAP, your aeronautical weather chart ! - Copyright ORBIFLY December 2007 - Disclaimer

ORBIFLY MET'MAP TEAM :

Programming & Development : Alexandra Zaïnal
Concept & original design : Baudouin d'Aumeries
Assistance for programming : Marc-Olivier Méhu
Technical & hardware support : Manuel Goepfert

Contact : metmap@orbifly.com




SOURCES & CREDITS :

   NOAA